Location: Newark
(48.8656°N, 2.3211°E)
Time: 05:17:49
(UTC+00:00)

Envisat - Pass Details

Date: 14 December 2019
Orbit: 764 x 766 km, 98.1° (Epoch: 20 January)

Event Time Altitude Azimuth Distance (km) Brightness Sun altitude
Rises 05:30:18 0° 26° (NNE) 3,245 6.4 -19.6°
Reaches altitude 10° 05:33:16 10° 44° (NE) 2,312 5.9 -19.1°
Maximum altitude 05:36:54 19° 90° (E) 1,742 5.8 -18.6°
Drops below altitude 10° 05:40:31 10° 136° (SE) 2,299 6.4 -18.0°
Sets 05:43:26 0° 153° (SSE) 3,219 6.9 -17.5°
